Wind_Speed
48 49 50 51 52 53 54 55 55 53 51 53 53 51 49 49 48 45 44 43 44 42 40 36 34 31 29 23 22 19 21 20 21 20 29 38 50 51
53 54 55 56 57 58 60 61 62 62 61 58 58 58 56 54 53 52 50 48 46 46 46 43 40 38 36 34 29 28 28 28 29 28 26 27 29 28
58 58 59 60 61 63 64 66 67 68 68 65 65 64 63 59 56 55 55 53 52 50 50 50 48 45 42 41 40 37 35 35 34 33 34 33 32 30
61 62 63 65 67 68 69 71 72 73 74 74 70 67 67 66 64 61 59 57 57 56 54 54 53 53 50 48 46 46 44 42 40 40 39 38 37 37
66 68 69 71 72 74 75 75 76 76 76 77 75 71 68 68 68 66 63 62 61 59 58 58 59 58 57 55 53 52 51 50 48 46 45 44 43 44
73 74 75 75 76 76 77 77 78 78 77 78 78 77 73 68 69 67 66 65 63 63 61 61 62 62 62 62 60 57 57 56 55 54 52 50 49 50
77 78 78 79 80 80 81 80 81 82 81 80 79 78 77 75 72 70 69 68 68 67 66 64 65 66 66 65 64 63 62 62 61 60 60 58 56 55
81 81 82 84 85 86 86 86 87 86 85 84 83 82 79 78 78 76 74 71 71 72 71 70 69 68 69 70 68 67 66 64 64 65 65 64 63 62
85 86 87 88 89 90 90 90 89 89 89 90 90 88 88 88 87 85 84 82 79 77 76 75 75 72 73 73 73 71 68 68 66 66 68 69 69 67
87 89 91 92 93 95 96 96 97 97 97 97 97 97 96 94 95 95 93 91 88 85 84 82 81 80 79 77 76 74 73 71 69 69 67 67 69 71
92 94 97 99 99 99 100 100 99 99 100 101 99 97 95 94 94 94 93 94 93 90 90 89 87 85 84 82 81 79 76 75 73 71 69 68 68 70
97 97 96 95 94 94 94 94 93 91 91 90 88 86 86 84 84 84 84 87 88 90 88 89 87 89 88 86 83 80 78 77 75 73 72 71 69 69
93 90 87 87 86 84 83 83 82 82 82 82 83 82 81 80 79 79 76 73 74 76 76 79 82 84 85 82 79 80 77 77 75 74 73 72 71 69
82 79 77 75 74 71 68 66 66 66 66 66 66 67 67 68 70 72 73 71 71 68 65 66 69 70 71 71 71 71 72 73 72 71 70 69 69 70
65 60 58 56 56 56 58 58 59 60 60 60 59 57 57 56 56 57 57 56 56 58 60 61 63 64 65 65 63 63 63 63 62 60 62 62 63 64
60 61 60 58 56 55 54 54 53 51 49 48 47 44 41 40 42 43 43 46 46 46 53 58 61 63 62 62 64 62 60 59 59 56 57 59 60 60
58 57 53 51 49 47 46 45 44 42 41 40 38 36 34 34 34 34 33 37 40 38 38 52 57 60 63 64 65 63 61 59 62 63 63 57 56 55
55 51 48 45 42 39 38 37 36 35 33 32 32 34 32 30 29 29 30 31 34 40 45 46 47 50 55 59 63 63 65 62 64 66 66 63 55 57
47 44 41 38 35 34 33 32 31 31 30 31 31 31 30 30 29 28 28 27 29 40 50 49 51 51 49 51 54 62 61 63 70 66 62 65 59 59
36 33 30 28 28 28 28 28 28 29 29 31 31 32 32 31 29 28 27 27 28 32 37 45 50 50 50 49 50 48 53 57 59 57 62 65 61 59
24 22 21 20 20 21 22 24 25 27 28 29 29 30 30 31 30 29 29 27 26 26 29 32 33 37 44 42 45 47 50 49 49 51 53 55 57 57
21 18 16 15 14 13 12 12 12 13 14 14 15 16 18 21 23 26 29 29 28 25 26 20 28 31 32 32 34 39 44 51 53 50 48 48 51 50
21 19 18 16 15 14 14 14 14 15 17 17 17 18 17 16 16 16 18 23 27 30 30 29 29 26 26 27 27 30 35 38 42 46 48 51 52 53
Wind_Direction
292 292 293 294 294 293 293 292 293 293 293 293 294 293 291 291 289 287 285 284 285 284 283 281 280 276 276 273 268 261 259 241 253 251 245 240 238 239
290 290 290 290 290 290 290 291 290 290 291 291 291 291 289 288 286 284 282 279 277 277 277 275 273 271 268 267 263 263 259 255 250 245 245 245 244 244
287 288 288 289 289 289 289 289 288 288 287 289 288 288 287 285 282 280 279 277 275 271 269 269 268 266 263 261 260 257 256 255 252 248 248 247 248 254
288 289 289 289 289 288 288 288 287 287 286 285 286 285 284 283 282 280 276 274 272 270 266 265 263 263 260 257 255 254 252 252 254 251 247 246 248 248
289 288 288 288 288 287 287 286 285 285 284 283 282 282 280 279 278 276 274 271 269 265 264 262 262 260 259 257 254 252 251 250 249 249 250 249 246 246
288 288 287 287 286 285 285 284 284 283 282 281 280 279 277 275 274 273 272 271 267 265 263 262 260 260 260 259 256 252 250 249 247 247 247 246 246 244
287 287 286 286 285 285 284 283 282 281 281 280 279 278 277 275 272 269 268 267 267 265 262 260 260 259 259 258 257 255 251 249 247 246 245 243 243 243
287 286 286 286 286 285 285 285 284 282 281 280 279 277 275 273 272 270 267 266 264 264 263 261 258 257 258 258 256 255 254 251 248 246 245 245 243 241
286 286 286 286 286 284 283 283 282 280 280 278 277 275 274 274 272 270 268 266 264 262 261 260 259 257 257 256 256 255 254 253 250 248 246 245 245 244
286 285 284 284 284 283 282 281 280 279 278 276 275 273 271 269 268 268 266 265 262 260 258 256 257 256 255 255 255 255 255 253 252 252 249 247 245 245
288 288 287 286 285 284 281 279 276 274 274 273 271 271 269 268 267 265 262 262 260 257 257 256 254 254 253 253 254 254 254 254 252 250 250 250 248 246
290 289 286 283 281 279 277 277 276 276 276 276 276 276 275 273 272 269 267 266 264 260 259 258 256 255 254 253 253 253 253 252 252 251 249 248 248 248
287 285 283 282 282 282 281 280 279 276 275 275 274 273 273 272 271 270 267 264 262 261 261 261 259 257 258 258 257 255 253 252 252 251 250 250 249 247
288 287 285 284 283 283 282 281 280 279 279 277 276 275 273 271 269 267 267 266 264 260 256 252 253 255 256 257 257 257 256 255 254 253 252 251 250 249
292 292 291 289 287 286 286 285 284 283 282 281 279 278 277 275 271 269 266 263 260 256 254 251 250 249 246 247 247 248 249 251 250 253 252 250 248 247
294 292 290 289 288 287 285 283 283 284 283 282 282 282 279 277 275 271 264 257 255 251 245 241 242 244 245 245 243 241 242 243 244 241 250 249 247 246
294 293 291 289 286 284 283 284 284 284 284 283 282 282 281 281 277 274 266 256 253 249 243 241 240 240 240 240 242 240 238 239 241 245 242 245 247 247
296 294 291 288 285 282 282 282 283 284 283 281 281 283 284 282 278 275 268 260 248 234 241 248 247 242 240 240 241 240 239 240 242 240 239 241 244 245
296 294 293 290 286 282 282 282 282 282 282 282 283 283 283 281 278 275 274 270 256 237 235 239 248 253 248 242 243 241 242 243 244 244 244 243 240 241
302 299 295 292 289 284 283 283 284 284 284 284 283 281 280 278 275 272 271 268 259 253 249 245 248 252 253 250 244 244 245 247 247 246 243 244 242 243
319 313 308 305 301 297 291 289 287 286 285 285 285 283 280 277 273 269 265 264 264 259 253 252 251 250 253 253 251 249 245 243 243 243 243 243 244 242
4 2 359 356 351 344 336 329 322 319 319 319 315 308 301 294 286 274 267 261 259 262 260 252 254 250 253 250 247 248 248 245 244 243 243 243 242 241
347 348 347 346 341 335 330 325 321 316 314 315 313 309 306 308 308 302 284 271 257 250 252 256 262 258 254 251 246 243 243 245 244 244 247 252 254 254
Height
5703 5701 5698 5696 5694 5692 5689 5688 5686 5685 5684 5680 5679 5677 5676 5673 5672 5672 5670 5669 5667 5667 5666 5665 5664 5666 5667 5668 5669 5669 5669 5670 5671 5671 5671 5672 5675 5678
5690 5687 5684 5682 5679 5677 5674 5672 5670 5669 5669 5667 5664 5663 5662 5661 5659 5657 5656 5656 5656 5655 5654 5656 5656 5655 5657 5658 5660 5661 5661 5662 5664 5663 5664 5665 5667 5667
5675 5672 5668 5666 5663 5661 5658 5656 5653 5652 5652 5650 5647 5645 5644 5644 5644 5643 5641 5641 5641 5641 5640 5641 5643 5644 5645 5647 5649 5651 5653 5654 5654 5655 5657 5657 5658 5659
5658 5655 5652 5649 5646 5643 5640 5638 5635 5632 5632 5632 5628 5627 5625 5623 5624 5625 5625 5624 5624 5624 5625 5625 5626 5628 5631 5633 5634 5637 5640 5642 5643 5645 5647 5648 5648 5650
5640 5637 5633 5630 5627 5623 5620 5617 5613 5610 5608 5609 5609 5606 5606 5603 5602 5602 5603 5604 5605 5606 5606 5607 5608 5610 5612 5615 5618 5621 5623 5626 5629 5631 5633 5635 5637 5641
5620 5616 5613 5609 5605 5601 5598 5595 5592 5589 5586 5585 5585 5584 5583 5581 5580 5582 5582 5583 5586 5587 5588 5588 5590 5591 5593 5595 5599 5603 5606 5609 5612 5615 5618 5622 5626 5629
5599 5595 5591 5586 5582 5578 5575 5572 5567 5564 5562 5560 5560 5560 5560 5559 5557 5558 5559 5561 5564 5565 5566 5568 5569 5571 5573 5575 5577 5581 5585 5589 5593 5597 5601 5605 5609 5614
5578 5572 5567 5563 5557 5553 5549 5546 5542 5537 5536 5533 5533 5532 5534 5532 5531 5533 5534 5537 5542 5541 5544 5546 5547 5549 5549 5552 5556 5559 5563 5567 5572 5577 5581 5585 5589 5594
5554 5548 5543 5537 5531 5525 5522 5519 5515 5510 5505 5503 5504 5505 5506 5503 5501 5504 5506 5509 5516 5517 5517 5523 5524 5528 5527 5530 5532 5536 5540 5545 5549 5554 5561 5565 5570 5574
5528 5522 5516 5511 5504 5496 5492 5489 5485 5480 5475 5469 5466 5470 5471 5472 5469 5470 5472 5475 5483 5490 5488 5494 5496 5502 5502 5507 5510 5513 5517 5521 5526 5531 5536 5542 5548 5554
5500 5493 5484 5479 5474 5465 5457 5452 5449 5448 5438 5433 5432 5432 5434 5435 5435 5434 5438 5439 5448 5457 5457 5462 5471 5472 5475 5482 5487 5491 5493 5498 5504 5508 5514 5519 5525 5531
5472 5463 5453 5442 5436 5430 5422 5415 5413 5413 5406 5404 5402 5402 5402 5404 5403 5403 5406 5409 5414 5421 5431 5430 5440 5440 5446 5456 5461 5466 5470 5473 5478 5485 5491 5497 5503 5508
5438 5432 5423 5411 5403 5399 5394 5388 5384 5380 5379 5376 5375 5375 5375 5375 5376 5375 5377 5381 5385 5389 5402 5404 5408 5415 5419 5429 5434 5438 5445 5449 5455 5461 5466 5473 5479 5486
5404 5399 5393 5386 5378 5373 5368 5363 5357 5354 5353 5352 5350 5350 5349 5349 5348 5349 5351 5354 5359 5366 5374 5378 5379 5389 5396 5402 5410 5415 5419 5425 5431 5437 5443 5449 5456 5462
5376 5372 5369 5364 5358 5353 5348 5344 5339 5336 5332 5330 5329 5329 5327 5326 5326 5327 5329 5331 5334 5342 5350 5356 5360 5365 5370 5377 5385 5391 5396 5403 5410 5416 5421 5426 5432 5438
5360 5355 5350 5345 5340 5336 5332 5327 5322 5319 5316 5313 5312 5312 5311 5310 5310 5309 5311 5312 5315 5322 5327 5332 5337 5343 5350 5355 5360 5369 5377 5384 5390 5396 5399 5404 5410 5418
5342 5336 5333 5328 5324 5320 5316 5312 5308 5306 5303 5301 5299 5299 5299 5298 5296 5295 5296 5297 5300 5305 5308 5313 5317 5322 5328 5334 5340 5349 5356 5362 5369 5372 5376 5383 5393 5399
5324 5319 5316 5312 5308 5306 5303 5301 5298 5295 5293 5291 5289 5288 5287 5287 5286 5284 5284 5285 5287 5291 5294 5297 5300 5305 5309 5315 5323 5331 5335 5340 5345 5349 5356 5364 5375 5379
5309 5304 5301 5298 5296 5293 5292 5290 5288 5285 5283 5282 5280 5278 5277 5276 5276 5276 5274 5275 5276 5278 5281 5283 5285 5288 5293 5300 5305 5310 5316 5321 5326 5335 5341 5347 5354 5358
5296 5292 5289 5287 5285 5283 5282 5280 5279 5277 5274 5273 5271 5269 5267 5266 5266 5265 5265 5265 5265 5266 5268 5270 5273 5275 5278 5283 5289 5297 5301 5305 5309 5316 5322 5328 5335 5341
5290 5286 5282 5280 5278 5276 5274 5272 5270 5268 5265 5263 5260 5258 5257 5255 5255 5255 5255 5255 5255 5256 5257 5258 5261 5262 5263 5270 5275 5279 5283 5288 5294 5301 5305 5311 5318 5325
5291 5285 5281 5278 5275 5272 5269 5267 5264 5262 5259 5256 5254 5251 5249 5246 5245 5244 5244 5245 5246 5247 5247 5250 5249 5251 5254 5258 5262 5265 5268 5274 5281 5286 5290 5295 5301 5309
5293 5288 5283 5279 5275 5272 5268 5265 5262 5259 5256 5253 5250 5247 5244 5242 5239 5237 5236 5235 5236 5237 5239 5240 5240 5242 5245 5248 5251 5254 5257 5260 5265 5271 5276 5278 5284 5290